Location: Chuathbaluk
(61.5726°N, 159.2454°W)
Time: 22:59:01
(UTC+00:00)

Vanguard 2 Rocket - Visible Passes

Search period start: 25 November 2020 00:00
Search period end: 05 December 2020 00:00
Orbit: 554 x 3326 km, 32.9° (Epoch: 25 November)

Date Brightness Start Highest point End Pass type
(mag) Time Alt. Az. Time Alt. Az. Time Alt. Az.
26 Nov 11.7 17:50:09 10° SSE 17:56:02 12° SSE 18:01:31 10° SE visible
28 Nov 11.5 17:58:26 10° S 18:08:23 16° SSE 18:17:19 10° SE visible
29 Nov 11.5 17:00:21 10° S 17:08:13 14° SSE 17:15:39 10° ESE visible
30 Nov 11.5 16:05:57 10° SE 16:08:12 10° SE 16:10:26 10° SE visible
30 Nov 11.3 18:08:39 10° SSW 18:20:43 20° SSE 18:31:32 10° SE visible
01 Dec 11.3 17:09:31 10° S 17:20:24 18° SSE 17:30:40 10° ESE visible
02 Dec 11.3 16:11:38 10° S 16:20:12 15° SE 16:28:41 10° ESE visible
02 Dec 11.2 18:19:48 10° SSW 18:33:04 23° S 18:45:05 10° SE visible
03 Dec 11.3 15:16:47 10° SSE 15:20:14 11° SE 15:23:42 10° SE visible
03 Dec 11.1 17:20:08 10° SSW 17:32:37 21° SSE 17:44:35 10° ESE visible
04 Dec 11.1 16:21:20 10° S 16:32:16 18° SSE 16:43:17 10° ESE visible
04 Dec 11.1 18:31:34 10° SW 18:45:23 24° S 18:58:09 10° SE visible
